sat.trackr.live / text

‹ back to catalog

KUIPER-00285

NORAD 68589 · 2026-072S

PAYLOAD ACTIVE UNKNOWN

§ Identity

Operator
Country
US
Launch date
2026-04-04
Launch site
AFETR
Launch vehicle
Mass (kg)
RCS (m²)

External: N2YO · Heavens-Above · Gunter

§ Orbital elements

Epoch: 2026-05-25T03:00:52.291872Z

Period
93.61 min
Inclination
51.8756°
Eccentricity
0.0006712
Mean motion
15.38326665 rev/d
Perigee alt
446.5 km
Apogee alt
455.6 km
Semi-major
6,829.2 km
B*
7.8846e-4
RAAN
288.3653°
Arg perigee
292.3178°
Mean anomaly
67.7097°
Rev number
783

§ Raw data

KUIPER-002851 68589U 26072S   26145.12560523  .00030002  00000+0  78846-3 0  99952 68589  51.8756 288.3653 0006712 292.3178  67.7097 15.38326665  7832

JSON: /api/v1/satellites/68589 · /tle

For live sub-satellite position, see the globe view (requires WebGL).

§ Visibility from observer

Set your observer location to see the next 7 days of passes ≥ 10°. The values pass through the URL so the page stays shareable.

No JS? Fill the form by hand. The geolocation button needs JavaScript.